Temperature
14 15 15 16 16 16 18 20 22 22 23 23 23 23 21 20 20 17 16 16 16 16 17 17 17 17 17 17 17 17 16 16 16 16 16 16 16 16 16 16 16 16 16 15 15 16 16 15 15
14 14 15 16 16 17 18 20 21 22 22 22 22 22 21 19 17 16 16 16 16 16 17 17 17 17 17 17 16 16 16 16 16 16 16 16 16 16 16 16 16 16 15 15 15 16 15 15 15
14 14 15 16 16 18 19 20 21 21 21 21 21 20 19 18 17 16 16 16 16 16 16 16 16 16 17 16 16 16 16 16 16 16 16 16 16 16 16 16 16 15 16 15 15 15 15 15 15
13 14 15 16 17 18 20 20 20 20 20 20 20 18 17 16 15 15 16 16 16 16 16 16 16 16 16 16 16 16 16 16 16 16 16 16 16 16 16 16 15 15 15 15 15 15 15 15 15
13 15 15 15 17 19 20 20 20 20 20 20 19 18 16 15 15 15 15 16 16 16 16 16 16 16 16 16 16 16 16 16 16 16 16 16 16 16 16 16 15 15 15 15 15 15 15 15 15
14 15 15 15 17 19 19 20 20 20 20 20 19 17 15 14 15 15 15 15 15 15 15 15 15 16 16 16 16 16 16 16 16 16 16 16 15 16 16 16 15 15 15 15 15 15 15 15 15
14 14 15 17 17 18 19 19 19 19 19 19 18 17 14 14 14 14 15 15 15 15 15 15 15 15 15 15 15 15 15 15 15 15 15 15 15 15 15 15 15 15 15 15 15 15 15 15 15
13 14 15 16 17 17 18 18 19 19 18 18 17 16 15 14 14 14 14 14 14 15 15 15 15 15 15 15 15 15 15 15 15 15 15 15 15 15 15 15 15 15 15 15 15 15 15 15 15
13 13 14 16 16 16 17 17 17 17 17 16 16 15 14 14 14 14 14 14 14 14 14 14 14 15 15 15 15 15 15 15 15 15 15 15 15 15 15 15 15 15 15 15 15 15 15 15 15
14 13 14 15 16 16 16 16 16 16 16 15 14 14 14 14 13 13 13 13 14 14 14 14 14 14 14 14 14 15 15 15 15 15 15 15 15 15 15 15 15 15 15 14 14 14 14 14 14
14 14 14 15 15 15 15 16 16 16 15 15 14 13 13 13 13 13 13 13 13 14 14 14 14 14 14 14 14 14 14 14 14 14 14 14 14 14 14 14 14 14 14 14 14 14 14 14 14
14 14 14 14 14 15 15 15 16 16 15 15 14 14 13 13 13 13 13 13 13 13 14 14 14 14 14 14 14 14 14 14 14 14 14 14 14 14 14 14 14 14 14 14 14 14 14 14 13
13 13 13 13 14 14 14 15 15 14 14 14 14 14 13 13 13 12 12 12 13 13 13 13 14 14 14 14 14 14 14 14 14 14 14 14 14 14 14 13 13 13 13 13 13 13 13 13 13
13 13 13 13 14 14 14 14 14 14 14 14 14 13 13 13 12 12 12 12 12 12 13 13 13 13 13 13 13 13 13 13 13 13 13 13 13 13 13 13 13 13 13 13 13 13 13 13 13
13 13 13 13 14 14 13 13 14 14 14 14 14 13 13 12 12 12 11 11 12 12 12 12 12 13 13 13 13 13 13 13 13 13 12 12 13 13 13 13 12 12 12 12 13 13 13 13 13
14 13 12 13 14 14 13 13 14 14 14 14 14 13 13 12 12 11 11 11 12 12 12 12 12 12 12 12 12 12 12 12 12 12 12 12 12 12 12 12 12 12 12 12 12 12 12 12 12
13 13 13 13 14 14 13 13 13 14 14 14 14 13 13 12 12 11 11 11 11 11 12 12 12 12 12 12 12 12 11 11 11 11 11 11 11 11 11 11 12 12 12 12 12 12 12 12 12
12 13 13 13 13 14 13 13 13 14 14 14 14 14 13 12 12 11 11 11 11 11 11 11 12 11 11 11 11 11 11 11 11 11 11 11 11 11 11 11 11 11 11 11 11 11 11 11 11
14 14 13 13 13 13 13 13 13 14 14 14 14 14 13 13 12 11 11 11 11 11 11 11 11 11 11 11 11 11 11 11 11 10 10 10 11 11 11 11 11 11 10 10 10 10 11 11 11
14 13 12 12 13 13 13 13 13 14 14 14 14 14 13 13 12 11 11 10 10 10 11 11 10 10 10 10 10 10 10 10 10 10 10 10 10 10 10 10 10 10 10 10 10 10 10 10 10
12 12 12 12 12 12 12 12 13 14 14 14 14 13 13 13 12 11 10 10 10 10 10 10 10 10 10 10 10 10 10 10 10 10 10 10 10 10 10 10 10 10 10 10 10 10 10 10 10
11 11 12 11 11 11 12 10 12 13 13 13 13 13 13 12 12 11 10 10 10 10 10 10 10 10 10 10 10 10 9 9 9 9 9 9 9 9 10 9 9 9 9 9 9 9 9 9 9
10 11 11 11 11 10 11 10 10 13 13 12 13 13 12 12 12 11 10 10 10 10 10 10 10 9 9 9 9 9 9 9 9 9 9 9 9 9 9 9 9 9 9 9 9 9 9 9 9
11 11 11 11 10 9 11 10 11 12 13 13 13 13 12 12 11 11 10 10 9 9 9 9 9 9 9 9 9 9 9 8 8 8 8 8 8 8 8 8 8 8 8 8 8 8 8 8 8
11 10 9 9 9 10 11 10 10 13 13 13 12 12 12 11 11 10 10 9 9 9 9 9 9 9 9 9 8 8 8 8 8 8 8 8 8 8 8 8 8 8 8 8 8 8 8 8 8
11 10 9 9 10 10 10 9 11 13 13 13 12 12 11 11 10 10 9 9 9 9 9 9 8 8 8 8 8 8 8 7 7 7 7 7 7 7 7 7 7 7 7 7 7 7 7 7 7
10 10 10 9 9 9 10 11 12 12 12 12 12 11 11 11 10 10 9 9 9 8 8 8 8 8 8 8 8 8 7 7 7 7 7 7 7 7 7 7 7 7 7 7 7 7 7 7 6
10 10 9 9 9 9 11 12 10 11 11 11 11 11 11 11 10 10 9 9 9 8 8 8 8 8 7 7 7 7 7 7 7 6 7 7 7 7 6 6 6 6 6 6 6 6 6 6 6
9 9 9 9 9 8 9 10 12 11 11 11 11 11 11 10 10 10 9 9 9 8 8 8 8 7 7 7 7 7 7 7 6 6 6 6 6 6 6 6 6 6 6 6 6 6 6 6 6
10 10 10 8 8 9 8 8 12 12 12 12 12 11 11 10 10 10 9 9 9 8 8 7 7 7 7 7 7 7 7 6 6 6 6 6 6 6 6 6 6 6 6 6 6 5 5 5 5
Wind_Speed
10 10 6 3 3 5 10 7 5 3 2 1 4 4 5 6 6 9 3 6 8 9 11 11 11 10 9 9 9 9 8 7 6 6 6 6 5 5 5 4 4 5 5 5 5 5 5 6 6
9 6 4 3 5 8 8 8 5 2 2 3 4 4 6 7 8 7 4 6 7 9 10 10 11 10 9 9 8 8 8 7 6 6 5 5 5 5 4 4 4 4 4 4 5 5 5 5 5
9 7 4 4 6 8 6 7 5 3 4 3 3 5 4 6 6 5 4 4 6 9 10 11 11 10 9 8 8 7 7 6 5 5 4 4 4 4 3 3 3 3 4 4 4 4 4 5 5
4 4 4 6 9 8 5 4 7 6 4 3 5 5 5 7 5 5 4 5 7 8 11 11 11 10 9 8 7 7 6 5 4 4 3 3 3 3 3 3 3 4 4 4 4 4 4 5 5
3 3 5 7 9 6 3 2 5 7 5 5 5 5 5 5 7 6 5 5 7 7 10 10 11 10 8 7 6 6 5 4 4 3 3 3 3 3 3 3 3 4 4 4 4 4 5 5 5
3 4 6 8 8 6 2 1 3 5 5 5 5 5 5 6 6 5 5 6 6 7 9 9 9 9 8 6 5 4 3 3 3 3 3 3 3 3 3 4 4 4 4 4 4 4 5 6 6
3 4 6 7 6 5 3 1 2 4 5 4 3 4 6 6 5 4 6 7 7 7 7 6 6 7 7 6 5 4 3 2 2 2 2 3 4 4 5 5 5 5 5 5 5 6 6 6 7
3 3 5 6 6 4 4 2 1 3 4 4 4 4 6 6 4 5 6 6 6 6 5 5 5 5 4 4 4 3 2 2 2 3 4 4 5 6 7 7 6 6 6 6 7 7 7 8 8
3 3 4 3 4 4 4 2 3 4 5 5 6 6 8 8 6 5 5 5 5 6 5 5 5 5 4 2 2 2 2 3 3 3 4 5 5 5 6 7 7 7 7 8 8 8 9 9 10
2 2 1 2 1 4 3 2 2 3 5 5 7 9 8 7 5 5 5 5 5 5 5 4 4 5 5 3 2 1 1 1 2 2 3 4 4 4 4 6 8 9 9 9 9 10 10 10 9
1 0 2 4 5 4 2 1 1 4 4 5 7 9 7 6 5 5 5 5 5 5 5 5 4 5 5 4 3 3 3 2 3 2 2 3 3 2 2 2 4 6 8 8 8 9 9 10 10
2 3 4 4 4 3 2 1 0 2 3 7 8 7 7 6 5 5 5 4 4 5 5 5 5 4 4 5 4 3 3 3 3 3 4 3 1 2 1 1 3 4 5 5 5 6 9 10 10
3 3 5 4 3 2 1 1 2 3 4 6 8 7 6 6 5 5 5 4 4 5 5 4 4 4 4 3 3 3 3 3 4 4 4 4 2 2 2 2 2 3 4 4 4 5 6 6 7
4 6 5 4 3 2 2 1 1 2 4 5 6 6 6 5 5 5 5 4 4 4 4 4 4 4 4 3 2 3 4 4 4 4 4 4 3 3 2 2 2 3 4 4 4 5 4 4 4
5 6 5 3 3 2 2 2 3 5 5 5 5 6 6 5 5 5 5 4 4 3 3 4 3 4 4 4 3 3 3 4 3 4 5 4 4 3 3 2 2 3 4 4 4 4 4 4 4
5 4 3 3 2 2 2 2 5 6 6 5 5 5 5 5 4 4 5 4 4 3 3 4 4 4 4 4 3 3 3 3 3 4 4 5 5 5 3 3 3 3 3 2 3 3 3 4 3
4 3 4 3 1 1 3 2 4 6 6 5 5 5 5 5 5 4 4 4 3 3 3 2 3 3 4 3 3 3 3 3 3 3 4 5 6 6 5 3 3 4 2 2 3 3 2 3 4
3 3 3 3 1 2 3 2 4 6 6 6 5 5 6 5 5 5 4 4 3 2 2 2 3 3 3 3 3 2 3 3 4 4 4 5 6 6 5 4 4 4 3 3 3 3 3 3 3
1 2 3 3 2 2 3 3 4 6 6 6 5 5 5 5 6 6 5 4 3 2 1 2 2 2 3 2 3 2 2 3 3 3 5 5 5 6 5 4 4 3 3 3 4 3 3 3 2
2 3 3 3 2 2 3 5 6 7 8 7 6 5 5 5 5 6 5 4 3 2 1 1 2 2 2 2 1 1 2 2 2 2 4 5 5 5 4 4 4 4 4 4 4 3 2 3 2
5 3 3 2 2 3 3 5 6 6 7 6 5 4 4 5 5 6 5 4 3 2 1 1 2 2 2 2 2 2 2 2 2 2 2 3 4 4 4 4 4 4 3 3 3 3 3 3 3
2 4 3 1 2 1 1 3 4 6 7 7 6 5 5 4 4 4 5 4 3 2 2 0 1 1 1 2 2 3 2 2 3 2 2 3 4 4 4 4 4 3 3 4 4 3 3 3 3
2 2 2 2 2 2 3 3 6 4 5 6 6 5 4 3 4 4 4 4 3 3 2 1 0 1 1 1 2 2 3 2 2 3 3 3 3 3 4 4 4 3 3 3 4 4 3 2 2
1 2 2 2 0 2 4 4 4 2 3 3 4 4 4 3 3 3 3 4 3 3 3 1 1 1 1 1 2 2 3 3 3 3 3 3 2 2 3 4 4 3 3 3 4 3 3 2 2
2 2 1 1 1 4 2 2 6 1 3 3 3 3 3 3 3 3 3 3 3 3 3 2 2 2 2 2 2 2 3 3 3 3 3 3 3 3 3 3 3 3 3 3 3 3 3 3 2
2 3 1 1 2 1 0 5 4 3 6 5 4 3 3 3 3 3 3 3 4 4 3 3 3 3 2 2 3 2 2 2 2 2 2 3 2 2 3 4 4 3 3 3 3 2 2 2 2
2 1 2 1 3 3 5 4 1 4 5 4 3 3 2 2 2 3 3 3 3 3 4 4 4 3 3 3 3 3 3 2 2 2 2 2 3 3 3 4 4 3 3 3 2 1 2 2 2
2 3 1 0 2 4 4 3 3 3 3 3 3 3 2 2 2 2 3 3 3 4 4 4 4 4 3 3 3 3 3 3 3 2 3 3 3 3 3 4 3 3 3 3 2 2 2 1 2
3 2 2 2 2 2 4 3 1 4 4 2 1 1 2 2 2 3 3 3 4 4 4 4 4 4 4 4 4 4 3 3 3 3 3 3 3 3 3 4 3 3 3 2 2 2 2 2 2
2 3 2 2 3 3 3 5 3 6 5 2 1 1 1 1 2 3 3 3 3 4 4 5 4 4 4 4 3 4 4 4 3 3 3 3 3 3 3 3 3 3 2 2 1 2 2 2 2
Wind_Direction
278 264 248 244 223 228 233 231 230 210 203 29 37 26 40 37 49 108 130 80 100 107 113 120 118 121 120 118 119 120 122 124 127 128 125 123 126 129 128 127 125 127 125 117 115 112 113 113 111
267 245 235 232 225 221 224 216 211 171 97 60 46 48 62 70 70 91 81 71 94 103 109 115 117 116 116 118 120 121 122 121 125 131 133 131 131 132 132 130 128 128 132 129 125 121 123 126 128
260 237 222 221 229 227 218 184 169 123 97 91 67 32 47 61 67 74 68 80 86 94 101 105 115 115 113 115 117 120 124 125 124 129 137 142 144 143 141 137 130 128 132 141 142 140 139 140 143
234 214 234 231 225 236 246 179 141 128 110 97 99 80 69 39 45 72 74 78 89 89 94 102 106 113 113 113 117 119 123 129 133 138 143 150 156 163 163 161 149 140 140 151 161 163 165 165 164
229 218 217 222 227 224 250 78 127 136 143 138 114 101 86 67 65 66 69 70 83 88 92 104 101 103 106 109 114 119 126 136 143 150 158 172 184 186 183 179 171 163 163 173 181 187 186 188 190
217 225 217 211 211 209 175 113 135 140 137 135 123 116 98 95 72 61 67 66 75 87 93 101 104 103 98 95 104 114 127 142 159 166 178 189 195 201 201 195 191 188 190 194 200 204 205 206 209
232 224 227 209 196 197 164 175 178 141 134 130 117 112 124 101 79 71 69 67 66 72 81 89 99 105 104 98 94 100 130 148 167 188 199 209 211 211 214 213 210 209 210 211 216 219 218 218 222
277 264 237 219 192 179 135 178 74 113 102 63 56 115 133 119 107 88 78 73 70 67 69 67 74 78 91 105 110 114 137 162 197 215 218 222 225 223 220 221 221 219 218 220 225 227 227 227 229
268 248 231 223 185 140 123 122 54 57 82 69 52 74 102 119 119 106 96 83 73 67 60 59 50 46 42 56 97 152 187 198 218 224 221 226 234 231 226 222 219 222 223 226 230 232 231 231 233
243 236 231 332 26 106 115 107 128 117 118 101 89 88 105 115 120 112 99 86 75 65 55 49 50 37 25 15 20 353 279 249 251 243 225 235 250 248 245 229 221 226 228 231 233 234 233 232 230
271 101 83 25 38 93 115 124 166 150 148 133 128 127 123 117 113 103 91 84 76 68 55 38 37 35 24 9 5 358 342 319 288 291 276 275 269 261 265 235 224 229 231 230 235 232 232 232 229
103 60 64 50 30 69 83 106 165 68 91 104 105 120 126 127 120 105 91 81 73 68 59 39 28 30 23 15 357 351 348 348 340 337 329 324 333 298 279 247 236 232 237 232 223 228 236 240 239
109 91 81 80 75 71 97 83 58 64 77 103 117 125 127 123 113 103 97 88 77 66 57 49 28 18 14 14 346 355 349 349 336 335 324 326 330 306 302 275 261 253 254 246 233 240 242 243 249
122 116 109 103 104 117 123 121 139 133 127 129 135 133 127 118 112 108 102 91 78 67 54 46 35 18 7 9 358 351 347 341 331 332 325 319 311 313 307 293 283 274 270 264 256 254 253 248 249
142 128 119 125 137 121 132 183 173 162 157 156 148 136 127 118 117 117 109 95 79 67 51 39 33 20 6 4 358 354 339 335 335 328 326 328 319 314 311 289 286 285 286 286 282 279 278 263 260
179 159 130 124 133 179 219 184 148 163 173 171 160 150 142 135 131 116 105 97 88 75 58 35 21 14 3 360 354 347 342 348 338 332 333 333 330 327 317 297 284 296 290 291 280 274 280 277 273
195 173 129 130 120 196 230 184 160 173 186 186 177 166 158 151 144 129 115 107 95 76 62 46 28 11 1 351 339 336 347 354 344 342 348 346 341 337 333 314 315 311 302 284 285 289 285 281 277
189 160 130 125 95 248 225 197 181 190 199 203 195 176 169 169 159 144 134 123 112 91 55 37 31 14 5 354 346 349 359 354 354 359 360 353 346 344 339 321 313 314 294 287 281 279 282 274 275
221 116 95 80 58 298 244 226 218 200 206 212 209 190 186 174 155 142 137 135 133 132 85 34 28 13 15 9 357 350 350 339 340 351 358 353 346 344 337 322 313 306 283 279 284 280 283 277 291
52 97 85 75 32 325 295 269 239 215 211 208 208 201 182 164 157 147 147 149 151 146 104 33 22 11 11 19 356 306 305 312 317 336 343 339 339 337 330 329 315 310 299 293 285 286 287 279 265
40 38 63 48 315 253 275 276 224 203 199 199 198 193 186 175 172 162 164 163 162 152 123 36 7 6 10 1 346 334 324 311 323 323 318 324 332 335 336 328 318 312 309 299 289 281 267 274 266
49 24 32 354 315 275 230 285 261 190 187 194 192 190 195 180 172 168 164 163 164 154 124 103 332 345 347 351 342 326 313 306 303 306 302 315 333 338 331 322 315 309 306 301 294 289 270 266 270
46 350 324 295 302 319 230 228 270 192 182 192 183 178 173 172 175 172 164 164 155 139 139 167 262 301 313 324 315 310 307 301 311 321 318 319 325 328 335 330 318 306 304 309 308 306 297 275 264
283 258 240 239 309 274 220 209 263 205 178 164 157 157 163 166 163 155 144 143 145 141 145 164 232 265 278 278 283 287 292 299 310 313 316 317 314 312 331 329 322 317 310 302 297 296 301 291 279
301 348 20 346 228 241 129 211 252 201 102 112 124 132 147 154 154 156 158 163 169 168 169 182 228 246 256 270 271 278 284 285 283 295 303 309 313 319 324 326 313 307 306 308 305 299 297 296 282
331 350 43 272 290 322 198 238 249 104 94 93 109 121 127 146 163 178 185 188 191 189 185 196 223 232 236 251 257 261 269 271 273 279 291 299 302 304 312 316 309 309 314 313 310 306 300 301 294
330 32 27 329 298 280 248 230 208 123 129 132 138 144 161 177 184 192 193 196 195 198 201 208 219 230 230 237 251 253 255 258 270 286 298 299 294 297 311 307 308 312 318 314 313 307 294 303 300
324 342 324 244 311 291 274 236 213 164 150 148 167 182 199 190 185 195 198 199 199 203 205 205 217 229 234 232 240 247 246 247 252 261 274 283 291 295 298 299 299 303 306 309 311 298 285 285 287
176 221 246 272 265 262 297 292 90 132 118 123 176 209 221 201 204 211 213 207 202 199 200 207 217 227 232 232 237 247 249 244 244 246 256 266 282 288 287 291 290 294 298 303 308 303 306 285 274
319 263 223 226 262 231 259 273 80 94 95 79 354 344 296 228 227 225 215 211 208 209 211 211 216 224 229 229 233 240 246 246 245 247 251 257 271 279 281 287 290 293 299 298 290 290 288 278 273
Height
1497 1499 1502 1505 1507 1507 1500 1490 1484 1485 1486 1489 1490 1492 1495 1500 1504 1517 1518 1518 1518 1519 1520 1523 1525 1526 1528 1530 1531 1533 1534 1535 1536 1537 1538 1539 1539 1540 1540 1541 1541 1542 1542 1542 1542 1543 1543 1543 1543
1496 1499 1503 1504 1504 1505 1496 1488 1486 1486 1489 1490 1492 1494 1497 1504 1509 1513 1516 1517 1518 1519 1521 1523 1524 1526 1528 1530 1531 1533 1534 1535 1537 1537 1538 1539 1540 1540 1541 1541 1542 1542 1542 1543 1543 1543 1543 1544 1544
1495 1499 1502 1500 1499 1497 1491 1485 1486 1488 1490 1492 1495 1498 1502 1508 1512 1513 1516 1517 1519 1520 1521 1523 1525 1526 1528 1530 1531 1533 1534 1535 1537 1538 1538 1539 1540 1540 1541 1541 1542 1542 1542 1543 1543 1543 1543 1544 1544
1496 1499 1500 1499 1495 1489 1485 1483 1484 1488 1492 1494 1497 1503 1507 1511 1513 1514 1516 1518 1519 1520 1521 1523 1525 1526 1528 1530 1531 1533 1534 1535 1536 1537 1538 1539 1539 1540 1541 1541 1542 1542 1542 1542 1543 1543 1543 1544 1544
1496 1497 1498 1496 1492 1487 1484 1484 1485 1489 1493 1496 1499 1504 1510 1513 1513 1514 1516 1518 1519 1520 1522 1523 1525 1526 1528 1529 1531 1532 1533 1534 1536 1537 1538 1538 1539 1540 1540 1540 1541 1541 1542 1542 1542 1543 1543 1543 1544
1495 1494 1496 1495 1491 1487 1486 1486 1488 1491 1494 1497 1500 1505 1512 1513 1514 1515 1517 1518 1520 1521 1522 1523 1525 1526 1528 1529 1530 1531 1533 1534 1535 1536 1537 1537 1538 1539 1539 1540 1540 1540 1541 1541 1542 1542 1542 1542 1543
1494 1492 1491 1489 1490 1489 1488 1489 1490 1492 1495 1499 1501 1506 1511 1513 1514 1515 1517 1518 1520 1521 1522 1523 1525 1526 1527 1528 1529 1531 1532 1533 1534 1535 1536 1536 1537 1537 1538 1538 1539 1539 1539 1540 1540 1541 1541 1541 1542
1491 1492 1490 1487 1489 1490 1490 1491 1492 1493 1497 1500 1502 1505 1510 1513 1514 1516 1517 1518 1520 1521 1522 1523 1524 1525 1526 1527 1529 1530 1531 1532 1533 1534 1534 1535 1535 1536 1537 1537 1537 1538 1538 1538 1539 1539 1539 1540 1540
1491 1494 1491 1489 1489 1490 1491 1493 1495 1496 1498 1501 1503 1505 1509 1512 1514 1516 1517 1519 1520 1521 1522 1523 1524 1525 1526 1527 1527 1528 1529 1530 1531 1532 1533 1533 1534 1534 1535 1535 1535 1536 1536 1536 1537 1537 1537 1537 1538
1491 1493 1492 1490 1488 1490 1493 1495 1497 1499 1500 1503 1506 1507 1510 1512 1514 1516 1517 1518 1519 1521 1522 1523 1523 1524 1525 1526 1526 1527 1528 1529 1529 1530 1531 1531 1532 1532 1533 1533 1533 1533 1534 1534 1534 1535 1535 1535 1535
1490 1491 1491 1491 1491 1493 1496 1497 1498 1499 1502 1504 1506 1508 1511 1513 1515 1516 1517 1519 1519 1520 1521 1522 1523 1523 1524 1524 1525 1525 1526 1527 1528 1528 1529 1529 1530 1530 1530 1530 1530 1531 1531 1531 1532 1532 1532 1533 1533
1492 1492 1492 1494 1494 1496 1498 1499 1500 1500 1503 1504 1506 1509 1511 1513 1515 1516 1517 1518 1519 1520 1520 1521 1522 1522 1522 1523 1523 1524 1524 1525 1525 1526 1526 1527 1527 1527 1527 1527 1528 1528 1528 1529 1529 1529 1530 1530 1531
1493 1495 1495 1496 1497 1498 1500 1501 1501 1503 1504 1505 1507 1510 1512 1514 1515 1516 1517 1518 1519 1519 1520 1520 1521 1521 1521 1521 1521 1522 1522 1523 1523 1524 1524 1524 1524 1525 1525 1525 1525 1525 1526 1526 1526 1526 1527 1527 1527
1494 1496 1497 1498 1499 1500 1502 1503 1503 1504 1505 1506 1508 1510 1512 1513 1514 1515 1516 1517 1518 1518 1519 1519 1519 1519 1520 1519 1519 1520 1520 1520 1521 1521 1521 1521 1522 1522 1522 1522 1522 1522 1523 1523 1523 1523 1524 1524 1524
1495 1496 1499 1500 1500 1501 1503 1504 1503 1504 1506 1507 1508 1510 1511 1513 1514 1515 1516 1516 1517 1518 1518 1518 1518 1518 1518 1518 1518 1518 1518 1518 1518 1519 1519 1519 1519 1519 1519 1519 1519 1519 1519 1520 1520 1520 1520 1520 1520
1494 1496 1501 1500 1500 1501 1505 1506 1503 1503 1505 1506 1508 1509 1511 1512 1514 1514 1515 1515 1516 1516 1517 1517 1517 1517 1517 1516 1516 1516 1516 1516 1516 1516 1516 1516 1516 1516 1516 1516 1516 1516 1516 1516 1516 1516 1516 1516 1516
1496 1499 1500 1501 1499 1500 1502 1504 1502 1503 1504 1506 1507 1509 1510 1512 1513 1514 1514 1514 1515 1515 1516 1516 1516 1515 1515 1515 1515 1514 1514 1514 1514 1514 1514 1513 1513 1513 1513 1513 1513 1513 1513 1513 1513 1513 1513 1512 1512
1499 1497 1498 1501 1500 1500 1501 1502 1501 1502 1503 1504 1506 1507 1509 1510 1511 1512 1513 1513 1514 1514 1514 1514 1514 1514 1514 1513 1513 1513 1512 1512 1512 1512 1511 1511 1510 1510 1510 1510 1510 1509 1509 1509 1509 1509 1509 1509 1508
1492 1494 1499 1501 1500 1501 1500 1501 1500 1500 1501 1502 1504 1505 1507 1509 1510 1511 1511 1512 1512 1512 1513 1513 1512 1512 1512 1512 1511 1511 1510 1510 1510 1509 1509 1508 1508 1507 1507 1506 1506 1506 1506 1506 1506 1506 1506 1505 1505
1493 1498 1502 1502 1501 1501 1501 1500 1497 1497 1498 1499 1501 1503 1505 1507 1508 1509 1510 1510 1511 1511 1511 1511 1511 1511 1510 1510 1509 1509 1509 1508 1508 1507 1506 1506 1505 1505 1504 1503 1503 1503 1502 1502 1502 1502 1502 1501 1502
1499 1502 1504 1505 1504 1502 1503 1502 1495 1493 1494 1497 1499 1501 1503 1504 1506 1507 1508 1508 1508 1509 1509 1509 1509 1509 1508 1508 1507 1507 1506 1506 1505 1504 1504 1503 1503 1502 1501 1501 1500 1499 1499 1498 1498 1498 1498 1498 1498
1505 1504 1504 1506 1509 1509 1506 1514 1497 1491 1493 1494 1496 1499 1501 1502 1504 1505 1505 1506 1506 1506 1507 1507 1507 1506 1506 1505 1505 1505 1504 1503 1503 1502 1501 1500 1500 1499 1498 1498 1497 1496 1495 1495 1495 1495 1494 1494 1494
1508 1505 1506 1506 1508 1512 1507 1513 1504 1490 1492 1493 1494 1496 1498 1500 1502 1503 1503 1504 1504 1504 1505 1505 1504 1504 1504 1503 1503 1502 1502 1501 1500 1500 1499 1498 1497 1496 1495 1494 1493 1492 1492 1491 1491 1491 1491 1490 1490
1507 1506 1506 1506 1511 1517 1505 1509 1504 1493 1490 1490 1492 1494 1496 1498 1500 1501 1501 1502 1502 1502 1502 1502 1502 1502 1501 1501 1500 1500 1499 1498 1498 1497 1496 1495 1494 1493 1492 1491 1490 1489 1488 1487 1487 1487 1487 1486 1486
1508 1512 1516 1517 1518 1512 1501 1506 1503 1489 1487 1489 1491 1493 1495 1497 1498 1499 1499 1499 1500 1500 1500 1500 1499 1499 1499 1498 1497 1497 1496 1495 1495 1494 1493 1492 1491 1490 1489 1488 1486 1485 1485 1484 1483 1483 1483 1482 1482
1510 1512 1521 1523 1517 1511 1507 1509 1497 1487 1488 1489 1491 1493 1494 1495 1496 1497 1497 1497 1497 1497 1497 1497 1497 1496 1496 1495 1495 1494 1493 1493 1492 1491 1490 1489 1488 1487 1486 1484 1483 1482 1481 1480 1479 1479 1479 1478 1478
1511 1513 1513 1519 1516 1519 1508 1496 1491 1487 1489 1490 1492 1493 1494 1495 1495 1495 1495 1495 1495 1495 1495 1494 1494 1493 1493 1493 1492 1491 1490 1490 1489 1488 1487 1486 1485 1484 1482 1481 1480 1479 1477 1476 1476 1475 1475 1474 1474
1514 1513 1516 1519 1520 1518 1502 1496 1498 1492 1490 1491 1491 1492 1493 1493 1493 1493 1493 1493 1493 1492 1492 1491 1491 1491 1490 1490 1489 1488 1487 1486 1486 1485 1483 1482 1481 1480 1479 1478 1477 1476 1474 1473 1472 1472 1471 1471 1470
1515 1515 1514 1515 1516 1521 1516 1505 1488 1488 1488 1490 1490 1490 1491 1491 1491 1491 1491 1491 1490 1489 1489 1488 1488 1487 1487 1486 1486 1485 1484 1483 1482 1481 1480 1479 1478 1477 1476 1475 1474 1473 1471 1470 1470 1469 1468 1467 1467
1511 1510 1512 1520 1517 1514 1519 1511 1486 1486 1487 1489 1489 1489 1489 1489 1489 1489 1488 1488 1487 1486 1486 1485 1484 1484 1483 1483 1482 1481 1480 1479 1478 1477 1477 1476 1475 1474 1472 1472 1471 1469 1468 1467 1466 1465 1464 1464 1463